This demonstration page uses our WeatherBlox Daily Observations layout. Learn more.

Left ArrowRight Arrow

Hourly Observations for December 23, 2015

Temp ( °F °C ) Dew Point ( °F °C ) Humidity (%) Winds ( mph kmh ) Pressure ( in mb ) Visibility ( mi km ) Precip ( " mm )
12:33 am 00:33 Cloudy with Light Rain 62 16.7 59 15 90 90 SE 6 9 29.94 1014 8 13 0.03 0.76
12:53 am 00:53 Cloudy with Light Rain 62 16.7 59 15 90 90 SE 5 7 29.92 1013 9 14 0.04 1.02
1:46 am 01:46 Cloudy with Light Rain 63 17 59 15 88 88 SSE 8 13 29.91 1013 7 11 0.00 0.00
1:53 am 01:53 Cloudy with Light Rain 62 16.7 59 15 90 90 SE 7 11 29.90 1013 7 11 0.04 1.02
2:10 am 02:10 Cloudy with Light Rain 63 17 59 15 88 88 SSE 8 13 29.91 1013 10 16 0.00 0.00
2:53 am 02:53 Cloudy with Light Rain 62 16.7 59 15 90 90 SSE 7 11 29.89 1012 10 16 0.01 0.25
6:53 am 06:53 Cloudy N/A N/A N/A undefined N/A N/A 2 3 0.00 0.00
11:24 am 11:24 Cloudy with Light Rain 63 17 61 16 94 94 SSW 6 9 29.91 1013 10 16 0.00 0.00
11:53 am 11:53 Cloudy with Light Rain 64 17.8 61 16.1 90 90 S 8 13 29.91 1013 9 14 0.11 2.79
11:59 am 11:59 Cloudy with Light Rain 64 17.8 60 15.6 87 87 SSE 8 13 29.91 1013 10 16 0.00 0.03
12:06 pm 12:06 Cloudy with Light Rain 64 18 61 16 88 88 SE 9 15 29.88 1012 10 16 0.00 0.00
12:53 pm 12:53 Cloudy with Light Rain 63 17.2 61 16.1 93 93 S 7 11 29.88 1012 10 16 0.02 0.51
1:12 pm 13:12 Cloudy with Light Rain 63 17 61 16 94 94 S 8 13 29.88 1012 10 16 0.00 0.00
1:53 pm 13:53 Cloudy 63 17.2 60 15.6 90 90 VRB 3 6 29.85 1011 10 16 0.01 0.25
2:00 pm 14:00 Cloudy 63 17 61 16 94 94 ESE 6 9 29.83 1010 10 16 0.00 0.00
2:10 pm 14:10 Cloudy with Light Rain 63 17 61 16 94 94 SSE 5 7 29.85 1011 10 16 0.00 0.00
2:17 pm 14:17 Cloudy with Light Rain 63 17.2 60 15.6 90 90 VRB 3 6 29.85 1011 8 13 0.00 0.03
2:53 pm 14:53 Cloudy with Light Rain 63 17.2 60 15.6 90 90 S 6 9 29.83 1010 8 13 0.01 0.25
3:18 pm 15:18 Cloudy with Nearby Thunderstorms 63 17 61 16 94 94 S 5 7 29.85 1011 10 16 0.00 0.00
3:38 pm 15:38 Cloudy with Light Rain 63 17 61 16 94 94 E 3 6 29.83 1010 10 16 0.00 0.00
3:53 pm 15:53 Cloudy with Rain 62 16.7 60 15.6 93 93 SSE 8 13 29.85 1011 3 4 0.15 3.81
4:00 pm 16:00 Cloudy with Rain 63 17 61 16 94 94 VRB 5 7 29.85 1011 3 4 0.00 0.00
4:07 pm 16:07 Cloudy with Rain 62 16.7 60 15.6 93 93 SSE 12 19 29.83 1010 7 11 0.02 0.51
4:27 pm 16:27 Cloudy with Rain 63 17.2 60 15.6 90 90 SE 6 9 29.83 1010 4 6 0.03 0.76
4:53 pm 16:53 Cloudy with Rain 63 17.2 60 15.6 90 90 VRB 6 9 29.83 1010 4 6 0.03 0.76
5:00 pm 17:00 Cloudy with Rain 63 17 61 16 94 94 S 8 13 29.85 1011 10 16 0.00 0.00
5:17 pm 17:17 Cloudy with Rain 63 17.2 60 15.6 90 90 SSE 9 15 29.85 1011 5 8 0.00 0.03
5:53 pm 17:53 Cloudy with Rain 62 16.7 60 15.6 93 93 SE 6 9 29.83 1010 5 8 0.09 2.29
5:58 pm 17:58 Cloudy with Rain 63 17 61 16 94 94 SSE 7 11 29.85 1011 3 4 0.00 0.00
6:01 pm 18:01 Cloudy with Rain 62 16.7 60 15.6 93 93 SSE 8 13 29.85 1011 3 5 0.03 0.76
6:08 pm 18:08 Cloudy with Rain 63 17 61 16 94 94 SE 6 9 29.83 1010 7 11 0.00 0.00
6:20 pm 18:20 Cloudy with Rain 63 17 61 16 94 94 SE 8 13 29.85 1011 8 13 0.00 0.00
6:53 pm 18:53 Cloudy with Rain 63 17.2 60 15.6 90 90 Calm 29.85 1011 8 13 0.18 4.57
7:53 pm 19:53 Cloudy with Rain 63 17.2 60 15.6 90 90 Calm 29.88 1012 10 16 0.14 3.56
8:51 pm 20:51 Cloudy with Light Rain 64 18 61 16 88 88 SE 9 15 29.88 1012 10 16 0.03 0.76
8:53 pm 20:53 Cloudy with Light Rain 64 17.8 61 16.1 90 90 SSE 13 20 29.88 1012 10 16 0.03 0.76
9:05 pm 21:05 Cloudy with Light Rain 64 17.8 61 16.1 90 90 VRB 7 11 29.88 1012 8 13 0.00 0.03
9:53 pm 21:53 Cloudy with Light Rain 64 17.8 61 16.1 90 90 SSE 9 15 29.88 1012 6 10 0.09 2.29
10:53 pm 22:53 Cloudy with Light Rain 65 18.3 62 16.7 90 90 S 6 9 29.88 1012 6 10 0.12 3.05
11:53 pm 23:53 Cloudy with Light Rain 66 18.9 63 17.2 90 90 S 9 15 29.88 1012 10 16 0.01 0.25

Powered by AerisWeather